Estación de Amalfi

Ultimos registro cada 15 minutos 27
Estación Fecha / Hora Temperatura Humedad Lluvia Velocidad Dirección Radiación Presion
27 Amalfi 06-05-2026 06:30 9,6 51 0 0 156 0 1015,8
26 Amalfi 06-05-2026 06:15 9,8 54 0 0 156 0 1015,7
25 Amalfi 06-05-2026 06:00 9,6 51 0 0 156 0 1015,5
24 Amalfi 06-05-2026 05:45 10,1 52 0 0 156 0 1015,4
23 Amalfi 06-05-2026 05:30 10 52 0 0 156 0 1015,2
22 Amalfi 06-05-2026 05:15 10,6 50 0 0 171 0 1015
21 Amalfi 06-05-2026 05:00 11,3 52 0 0 171 0 1014,8
20 Amalfi 06-05-2026 04:45 11,1 52 0 0 171 0 1014,7
19 Amalfi 06-05-2026 04:30 10,8 52 0 0 171 0 1014,6
18 Amalfi 06-05-2026 04:15 10,9 50 0 0 171 0 1014,7
17 Amalfi 06-05-2026 04:00 12,1 49 0 0 171 0 1014,6
16 Amalfi 06-05-2026 03:45 12,5 51 0 0 171 0 1014,8
15 Amalfi 06-05-2026 03:30 11,6 52 0 0 171 0 1015
14 Amalfi 06-05-2026 03:15 11,7 51 0 0 171 0 1014,8
13 Amalfi 06-05-2026 03:00 11,8 52 0 0 171 0 1014,9
12 Amalfi 06-05-2026 02:45 12,2 50 0 0 171 0 1015,1
11 Amalfi 06-05-2026 02:30 12,7 50 0 0 171 0 1015,1
10 Amalfi 06-05-2026 02:15 13 50 0 0 171 0 1015,1
9 Amalfi 06-05-2026 02:00 13,2 50 0 0 171 0 1015,1
8 Amalfi 06-05-2026 01:45 13,1 50 0 0 171 0 1015
7 Amalfi 06-05-2026 01:30 13,2 50 0 0 171 0 1014,9
6 Amalfi 06-05-2026 01:15 13,2 50 0 0 171 0 1014,8
5 Amalfi 06-05-2026 01:00 13,2 50 0 0 171 0 1014,3
4 Amalfi 06-05-2026 00:45 12,9 50 0 0 171 0 1014,3
3 Amalfi 06-05-2026 00:30 12,9 49 0 0 171 0 1014,2
2 Amalfi 06-05-2026 00:15 13,5 49 0 0 171 0 1013,8
1 Amalfi 06-05-2026 00:00 13,4 51 0 0 171 0 1013,8